Regional Weather Roundup
Issued by NWS Northern Indiana

Home | Current Version | Previous Version | Graphics & Text | Print | Product List | Glossary On
Versions: 1 2 3 4 5 6 7 8 9 10 11 12 13 14 15 16 17 18 19 20 21 22 23 24 25 26 27 28 29 30 31 32 33 34 35 36 37 38 39 40 41 42 43 44 45 46 47 48 49 50
000
ASUS43 KIWX 201100
RWRIWX

KIWX WEATHER ROUNDUP
NATIONAL WEATHER SERVICE NORTHERN INDIANA
700 AM EDT SUN APR 20 2014

NOTE: "FAIR" INDICATES FEW OR NO CLOUDS BELOW 12,000 FEET WITH NO
SIGNIFICANT WEATHER AND/OR OBSTRUCTIONS TO VISIBILITY.

* THESE STATIONS ARE NOT UNDER NWS QUALITY CONTROL. THEY ALSO MAY NOT
  REPORT WEATHER SUCH AS PRECIPITATION OR FOG.

INZ001>027-201200-
NORTHERN INDIANA

CITY           SKY/WX    TMP DP  RH WIND       PRES   REMARKS
GARY*          PTCLDY    46  27  46 SE23      30.22F
VALPARAISO     CLEAR     37  26  64 E5        30.25F
SOUTH BEND     CLEAR     41  29  62 SE5       30.27F
GOSHEN         CLEAR     39  30  70 SE7       30.27F
ANGOLA*        CLEAR     36  30  80 E5        30.28S
FORT WAYNE     MOCLDY    34  29  82 E5        30.29S WCI  30
PERU/GRISSOM   PTCLDY    37  33  84 E6        30.25S

$$
INZ028>050-201200-
CENTRAL INDIANA

CITY           SKY/WX    TMP DP  RH WIND       PRES   REMARKS
LAFAYETTE      CLEAR     42  30  62 E5        30.25S
KOKOMO*        PTCLDY    37  27  65 SE7       30.26S
MUNCIE*        CLEAR     38  30  73 SE8       30.26F
INDIANAPOLIS   MOCLDY    43  31  62 NE3       30.25R

$$
MIZ043>046-050>051-056>058-064>065-071>073-077>080-201200-
SOUTHWEST LOWER MICHIGAN

CITY           SKY/WX    TMP DP  RH WIND       PRES   REMARKS
BATTLE CREEK   CLEAR     39  29  67 SE7       30.27F
BENTON HARBOR  CLEAR     41  29  62 SE8       30.24F
COLDWATER*     CLEAR     37  31  76 SE5       30.28S
HILLSDALE*     PTCLDY    37  32  80 SE6       30.28S
HOLLAND        CLEAR     43  29  57 SE8       30.24F
GRAND RAPIDS   MOCLDY    41  28  60 SE6       30.25F
KALAMAZOO      CLEAR     40  30  67 S5        30.26F
STURGIS*       CLEAR     37  28  70 SE5       30.27S
THREE RIVERS*  FAIR      39  29  69 CALM      30.27F

$$
OHZ001>008-015>018-024>025-201200-
NORTHWEST OHIO

CITY           SKY/WX    TMP DP  RH WIND       PRES   REMARKS
DEFIANCE       CLEAR     33  29  85 N3        30.31R FOG
FINDLAY        CLEAR     35  31  85 SE6       30.28F WCI  30
TOLEDO EXPRESS CLEAR     35  31  85 CALM      30.31R
TOLEDO METCALF CLEAR     38  33  82 NE3       30.32R
LIMA           PTCLDY    37  31  78 E5        30.28S

$$
&&



USA.gov is the U.S. government's official web portal to all federal, state and local government web resources and services.